This is the latest recevied weather packets stored in our database for station/object JH0KSP-13. If no packets are shown the sender has not sent any weather packets the latest 10 day(s).
| Time | Temp. | Humidity | Pressure | Rain* | Wind** | Luminosity | Snow |
|---|---|---|---|---|---|---|---|
| 1777384256 | 16.11° C | 84% | 1012.2 hPa | 0 mm | - | - | - |
| 1777383056 | 16.11° C | 84% | 1012.3 hPa | 0 mm | - | - | - |
| 1777383009 | 16.11° C | 84% | 1012.3 hPa | 0 mm | - | - | - |
| 1777382409 | 16.11° C | 83% | 1012.2 hPa | 0 mm | - | - | - |
| 1777381856 | 16.11° C | 82% | 1012.2 hPa | 0 mm | - | - | - |
| 1777381808 | 16.11° C | 82% | 1012.2 hPa | 0 mm | - | - | - |
| 1777380657 | 16.11° C | 80% | 1012.4 hPa | 0 mm | - | - | - |
| 1777379456 | 16.11° C | 80% | 1012.4 hPa | 0 mm | - | - | - |
| 1777378255 | 16.11° C | 80% | 1012.4 hPa | 0 mm | - | - | - |
| 1777378209 | 16.11° C | 80% | 1012.4 hPa | 0 mm | - | - | - |
| 1777374656 | 16.11° C | 76% | 1012 hPa | 0 mm | - | - | - |
| 1777373456 | 17.22° C | 73% | 1011.8 hPa | 0 mm | - | - | - |
| 1777372256 | 17.22° C | 71% | 1011.5 hPa | 0 mm | - | - | - |
| 1777371056 | 17.78° C | 66% | 1011.4 hPa | 0 mm | - | - | - |
| 1777369856 | 17.78° C | 64% | 1011.2 hPa | 0 mm | - | - | - |
| 1777368657 | 18.89° C | 61% | 1011 hPa | 0 mm | - | - | - |
| 1777368608 | 18.89° C | 61% | 1011 hPa | 0 mm | - | - | - |
| 1777367456 | 20° C | 57% | 1011 hPa | 0 mm | - | - | - |
| 1777365057 | 21.11° C | 47% | 1011.2 hPa | 0 mm | - | - | - |
| 1777363856 | 22.22° C | 44% | 1011.1 hPa | 0 mm | - | - | - |
| 1777362656 | 22.22° C | 43% | 1011.2 hPa | 0 mm | - | - | - |
| 1777361456 | 22.22° C | 42% | 1011.2 hPa | 0 mm | - | - | - |
| 1777360256 | 22.22° C | 41% | 1011.2 hPa | 0 mm | - | - | - |
| 1777359055 | 22.22° C | 42% | 1011.5 hPa | 0 mm | - | - | - |
| 1777357855 | 22.78° C | 39% | 1011.3 hPa | 0 mm | - | - | - |
* Rain latest hour (hover to see other rain measurements)
** Current wind speed in m/s (hover to see current wind gust speed)